Terug naar catalogus

OPS 4682 DEB

ActiefPO
NORAD 51491·DEBRIS·🇺🇸 United States

Gelanceerd Apr 3, 1965 vanaf Vandenberg Space Force Base

Loading…

Volgende Passages (komende 24 uur)

TLE

VersSource: Space-Track

Epoch: Sep 14, 2026, 07:28 UTC

1 51491U 65027GB  26257.31122213  .00000041  00000-0  11589-3 0  9999
2 51491  90.2648  18.8038 0027655 260.0566 127.2187 12.97013634579240

Volg OPS 4682 DEB in realtime met AllMySat

Download on the App Store